Погода Реболы

Поиск расширенной информации на нашем сайте:

Полезная информация:

Новости сайта



02.01.2020
Опубликован Долгосрочный прогноз погоды по городам России и ближнего зарубежья на январь 2020 года.
Карты: Прогноз на январь и февраль 2020 года, Сравнение прогнозируемой аномалии приземной температуры воздуха на январь 2020 года по разным моделям.




Погода Реболы - сегодня

Время (UTC), дата Ветер
(°,м/с) 
Видим.   Явления Облачность Т
(°С)
Тd
(°С)
f(%) Тe
(°С)
Pmin
(гПа)
dP
(гПа)
Po
(мм)
O2
(г/м3)
Тmin Tmax R s Состояние
почвы
00 29.11.20 190 (Ю) н/о    н/о 
-2.9 -4.5 89 -2  1034.3  0.3  758  309           
03 29.11.20 160 (Ю) 24000 м    10/10 420 м 
[Sc]
-3.3 -4.7 90 -4  1034.2  -0.2  758  310  -3.5    0.2     
06 29.11.20 180 (Ю) 26000 м    9/9 450 м 
[Sc]
-3.9 -5.3 90 -5  1034  -0.2  758  310  -3.9    0.2  17  равномерный
сухой снег
100% 
09 29.11.20 160 (Ю) 28000 м    9/9 210 м 
[Sc]
-5.4 -6.5 92 -7  1034.7  0.5  758  312           
12 29.11.20 180 (Ю) 26000 м    10/10 120 м 
[St]
-6.2 -7.3 92 -6  1034.3  -0.4  758  313           
15 29.11.20 180 (Ю) 23000 м    10/10 120 м 
[St]
-5.5 -6.7 91 -7  1033.4  -0.8  757  312           
18 29.11.20 180 (Ю) 21000 м    10/10 120 м 
[St]
-4.9 -6.1 91 -6  1032.6  -0.8  757  311    -3.9       
21 29.11.20 170 (Ю) 20000 м    10/10 150 м 
[St]
-4.4 -5.6 91 -4  1031.3  -1.2  756  310           
00 30.11.20 160 (Ю) 22000 м    10/10 300 м 
[Sc]
-4.6 -6 90 -6  1029.8  -1.5  755  310           
03 30.11.20 170 (Ю) 23000 м    10/10 300 м 
[Sc]
-4.9 -6.3 90 -4  1028  -1.8  753  310  -5.5         
06 30.11.20 070 (В) 21000 м    10/10 120 м 
[St]
-4.9 -5.9 93 -4  1026.3  -1.6  752  309  -5      17  равномерный
сухой снег
100% 
09 30.11.20 170 (Ю) 8000 м  слаб. снег  10/10 120 м 
[Frnb|Ns]
-3.2 -4.2 93 -3  1024.5  -1.6  751  307           
12 30.11.20 150 (ЮВ) 8000 м  слаб. снег  10/10 240 м 
[Frnb|Ns]
-2.4 -3.5 92 -3  1022.3  -2.1  749  305           
15 30.11.20 150 (ЮВ) 21000 м  {снег}  10/10 100 м 
[Frnb|Ns]
-1.5 -2.5 93 -3  1020.2  -2  748  303      0.3     
18 30.11.20 170 (Ю) 20000 м  {снег}  10/10 120 м 
[Frnb|Ns]
-0.7 -1.5 94 -2  1018.5  -1.6  747  302    -0.6  0.3     
21 30.11.20 160 (Ю) 22000 м  {снег}  10/10 870 м 
[Sc]
-0.5 -1.8 91 -1  1017.2  -1.2  746  301           
00 01.12.20 190 (Ю) 25000 м  {снег}  8/0 средняя 
[Ac trans]
-1.5 -3.1 89 -2  1016.1  -1.2  745  302           
03 01.12.20 190 (Ю) 8000 м  слаб. снег  10/10 240 м 
[Frnb|Ns]
-1.7 -3.3 89 -3  1016  -0.1  745  302  -1.7    0.2     
06 01.12.20 190 (Ю) 23000 м  {снег}  10/10 360 м 
[Sc]
-2.5 -4.2 88 -4  1016  -0.1  745  303  -2.5    0.2  17  равномерный
сухой снег
100% 
09 01.12.20 190 (Ю) 26000 м    10/10 400 м 
[Sc]
-3.5 -5 89 -6  1016.6  0.5  745  305           
12 01.12.20 160 (Ю) 9000 м  слаб. снег  10/10 300 м 
[Sc]
-2.8 -4.4 89 -5  1015.4  -1.1  744  303           
15 01.12.20 180 (Ю) 8000 м  слаб. снег  10/10 240 м 
[Frnb|Ns]
-1.7 -2.8 92 -1  1014.5  -0.8  744  302         
21 01.12.20 250 (З) 22000 м    9/9 300 м 
[Sc]
-0.2 -1.5 91 -2  1020  3.2  748  302           
00 02.12.20 240 (ЮЗ) 23000 м    10/10 300 м 
[Sc]
-0.6 -2.5 87 -2  1022.6  2.5  750  303           
03 02.12.20 250 (З) 24000 м    10/10 330 м 
[Sc]
-1.2 -2.5 91 -3  1024.2  1.6  751  304  -1.7    0.7     
Время (UTC), дата Ветер
(°,м/с) 
Видим.   Явления Облачность Т
(°С)
Тd
(°С)
f(%) Тe
(°С)
Pmin
(гПа)
dP
(гПа)
Po
(мм)
O2
(г/м3)
Тmin Tmax R s Состояние
почвы

Для получения пояснительной информации подведите курсор к названию столбца.

ПОГОДА Реболы - архив

Всё, что Вы хотите узнать о погоде Реболы - удобно и подробно!

Выберите нужную дату (начиная с 1 января 2019* года) и нажмите кнопку "Найти".
Будут отображены архивные сводки погоды по пункту Реболы, начиная с указанной даты.


Отображать данные в формате CSV (для использования в таблицах Excel)


Внимание! Наш архив погоды предназначен исключительно для личного некоммерческого использования в познавательных целях. Если Вам необходимы официальные справки о состоянии погоды (для производственных, юридических, коммерческих и т.п. целей), обращайтесь в органы Росгидромета.

*Примечание: данная дата относится к архиву по метеостанциям СССР (Россия, СНГ, Балтия).
Архив по метеостанциям Зарубежной Европы и Азии (кроме Китая) хранится 10 дней, по другим регионам земного шара (Китай, Африка, Америка, Австралия, Океания) - 1 день.

Реболы - район местоположения метеостанции


Название, широта, долгота, высота метеостанции:
Реболы 63.8°ш. 30.8°д. 182 м над ур. моря [Российская Федерация]

Дополнительная информация

В oтличие oт бoльшинства пoгoдных сайтoв мы публикуем пoдрoбную метеoинфoрмацию в детальнoм прoфессиoнальнoм фoрмате.

Характеристики температуры и влажнoсти вoздуха измеряются на высoте 2 м в тени вдали oт зданий и деревьев.
Скoрoсть ветра измеряется на высoте 10 м (на урoвне рoста челoвека скoрoсть ветра ниже в 1.5-2 раза). Если метеoстанция нахoдится в гoрoде или в лесу, тo скoрoсть ветра занижена на 2-4 м/с пo сравнению с oткрытым местoм. Скoрoсть ветра над акватoриями крупных рек и oзёр, а также на вершинах хoлмoв на 2-5 м/с выше, чем в oбычных услoвиях.
Атмoсфернoе давление в разных тoчках местнoсти мoжет значительнo oтличаться oт давления на метеoстанции, в зависимoсти oт услoвий рельефа (при пoдъёме на 10 м давление пoнижается примернo на 1 мм рт.ст.).